Snow/Ice From: 17-12-2017 10:00 Until: 18-12-2017 06:00 warning for: Snow/Ice Level: Yellow info button

Although rather usual in this region, locally or potentially dangerous phenomena are expected. (such as local winds, summer thunderstorms, rising streams or high waves) Be aware and pay attention to the latest weather updates, especially if you carry out activities exposed to weather or close to a stream or shoreline. 


Meteo18 Weather Cam more information Meteo18 Weather Cam


Thunder radar more information blitzortung!


warning for Snow/Ice more information rain snow radar


Visit our other weather sites:

Template documentation
and downloads

And another site



Weather Underground History page Text

Daily Summary for May 9, 2017 Units:  Metric    English   Both
« Previous Day
Next Day »
Daily Weekly Monthly Yearly Custom
  High: Low: Average:
Temperature: 15.9 °C 8.4 °C 11.4 °C
Dew Point: 7.6 °C 5.6 °C 6.8 °C
Humidity: 93 % 54 % 75 %
Wind Speed: 24.1 km/h 0.0 km/h 8.8 km/h
Wind Gust: 30.6 km/h - -
Wind:- - ENE
Pressure: 1022.9 hPa 1012.1 hPa -
Precipitation: 0.0 mm    
Historical Graphs
 
 
Tabular Data for May 9, 2017
Time Temperature Dew Point Pressure Wind Wind Speed Wind Gust Humidity Rainfall Rate (Hourly)
00:02 9.1 °C 6.4 °C 1022.9 hPa NNW 1.6 km/h 6.4 km/h 83 % 0.0 mm
00:07 9.1 °C 6.5 °C 1022.9 hPa NNW 1.6 km/h 6.4 km/h 84 % 0.0 mm
00:12 9.1 °C 6.5 °C 1022.9 hPa Calm   6.4 km/h 84 % 0.0 mm
00:17 9.1 °C 6.5 °C 1022.9 hPa Calm   6.4 km/h 84 % 0.0 mm
00:22 9.1 °C 6.5 °C 1022.6 hPa North 6.4 km/h 6.4 km/h 84 % 0.0 mm
00:32 9.1 °C 6.5 °C 1022.6 hPa Calm   9.7 km/h 84 % 0.0 mm
00:37 9.1 °C 6.5 °C 1022.6 hPa Calm   6.4 km/h 84 % 0.0 mm
00:47 9.1 °C 6.7 °C 1022.6 hPa Calm   4.8 km/h 85 % 0.0 mm
00:52 9.1 °C 6.7 °C 1022.6 hPa Calm   3.2 km/h 85 % 0.0 mm
00:57 9.0 °C 6.6 °C 1022.6 hPa Calm   3.2 km/h 85 % 0.0 mm
01:02 9.0 °C 6.8 °C 1022.6 hPa Calm     86 % 0.0 mm
01:07 8.9 °C 6.7 °C 1022.2 hPa Calm     86 % 0.0 mm
01:12 8.9 °C 6.7 °C 1022.2 hPa Calm     86 % 0.0 mm
01:17 8.9 °C 6.9 °C 1022.2 hPa Calm     87 % 0.0 mm
01:22 8.9 °C 6.9 °C 1022.2 hPa Calm     87 % 0.0 mm
01:32 8.8 °C 6.8 °C 1022.2 hPa Calm     87 % 0.0 mm
01:37 8.9 °C 6.9 °C 1022.2 hPa Calm     87 % 0.0 mm
01:42 8.9 °C 7.0 °C 1022.2 hPa Calm     88 % 0.0 mm
01:47 8.8 °C 6.9 °C 1022.2 hPa Calm     88 % 0.0 mm
01:52 8.8 °C 6.9 °C 1021.9 hPa Calm   1.6 km/h 88 % 0.0 mm
01:57 8.7 °C 6.8 °C 1021.9 hPa Calm   3.2 km/h 88 % 0.0 mm
02:02 8.7 °C 7.0 °C 1021.9 hPa Calm   3.2 km/h 89 % 0.0 mm
02:12 8.7 °C 7.0 °C 1021.9 hPa North 3.2 km/h 6.4 km/h 89 % 0.0 mm
02:17 8.7 °C 7.2 °C 1021.6 hPa NNE 3.2 km/h 6.4 km/h 90 % 0.0 mm
02:22 8.7 °C 7.2 °C 1021.6 hPa North 8.0 km/h 8.0 km/h 90 % 0.0 mm
02:27 8.7 °C 7.2 °C 1021.6 hPa NE 1.6 km/h 11.3 km/h 90 % 0.0 mm
02:32 8.7 °C 7.2 °C 1021.6 hPa NW 3.2 km/h 11.3 km/h 90 % 0.0 mm
02:37 8.7 °C 7.3 °C 1021.6 hPa North 3.2 km/h 11.3 km/h 91 % 0.0 mm
02:42 8.7 °C 7.3 °C 1021.6 hPa NNW 1.6 km/h 11.3 km/h 91 % 0.0 mm
02:47 8.6 °C 7.2 °C 1021.6 hPa NE 4.8 km/h 9.7 km/h 91 % 0.0 mm
02:52 8.6 °C 7.4 °C 1021.6 hPa NE 1.6 km/h 8.0 km/h 92 % 0.0 mm
02:57 8.6 °C 7.4 °C 1021.6 hPa NE 4.8 km/h 8.0 km/h 92 % 0.0 mm
03:02 8.6 °C 7.4 °C 1021.2 hPa NNE 3.2 km/h 8.0 km/h 92 % 0.0 mm
03:07 8.5 °C 7.3 °C 1021.2 hPa NNE 4.8 km/h 8.0 km/h 92 % 0.0 mm
03:12 8.5 °C 7.3 °C 1021.2 hPa NE 3.2 km/h 8.0 km/h 92 % 0.0 mm
03:17 8.5 °C 7.3 °C 1021.2 hPa NNW 1.6 km/h 6.4 km/h 92 % 0.0 mm
03:22 8.4 °C 7.2 °C 1021.2 hPa NNE 1.6 km/h 6.4 km/h 92 % 0.0 mm
03:27 8.4 °C 7.3 °C 1021.2 hPa Calm   8.0 km/h 93 % 0.0 mm
03:32 8.4 °C 7.3 °C 1021.2 hPa NE 4.8 km/h 8.0 km/h 93 % 0.0 mm
03:37 8.4 °C 7.3 °C 1021.2 hPa NNE 8.0 km/h 12.9 km/h 93 % 0.0 mm
03:42 8.4 °C 7.3 °C 1020.9 hPa NNE 8.0 km/h 12.9 km/h 93 % 0.0 mm
03:52 8.4 °C 7.3 °C 1020.9 hPa NNW 3.2 km/h 14.5 km/h 93 % 0.0 mm
03:57 8.4 °C 7.3 °C 1020.9 hPa ENE 6.4 km/h 14.5 km/h 93 % 0.0 mm
04:02 8.4 °C 7.3 °C 1020.9 hPa NE 9.7 km/h 14.5 km/h 93 % 0.0 mm
04:07 8.4 °C 7.3 °C 1020.9 hPa NNE 6.4 km/h 14.5 km/h 93 % 0.0 mm
04:12 8.4 °C 7.3 °C 1020.9 hPa NE 8.0 km/h 14.5 km/h 93 % 0.0 mm
04:17 8.4 °C 7.2 °C 1020.9 hPa NNE 4.8 km/h 12.9 km/h 92 % 0.0 mm
04:22 8.5 °C 7.3 °C 1020.9 hPa ENE 3.2 km/h 14.5 km/h 92 % 0.0 mm
04:27 8.5 °C 7.3 °C 1020.5 hPa NNE 6.4 km/h 14.5 km/h 92 % 0.0 mm
04:32 8.5 °C 7.3 °C 1020.5 hPa NE 4.8 km/h 14.5 km/h 92 % 0.0 mm
04:37 8.5 °C 7.3 °C 1020.9 hPa North 4.8 km/h 14.5 km/h 92 % 0.0 mm
04:42 8.5 °C 7.3 °C 1020.9 hPa NNW 4.8 km/h 12.9 km/h 92 % 0.0 mm
04:47 8.5 °C 7.3 °C 1020.9 hPa NNW 3.2 km/h 14.5 km/h 92 % 0.0 mm
04:52 8.5 °C 7.3 °C 1020.5 hPa North 4.8 km/h 14.5 km/h 92 % 0.0 mm
04:57 8.5 °C 7.1 °C 1020.5 hPa NE 4.8 km/h 14.5 km/h 91 % 0.0 mm
05:02 8.5 °C 7.1 °C 1020.5 hPa NNW 4.8 km/h 14.5 km/h 91 % 0.0 mm
05:07 8.5 °C 7.1 °C 1020.5 hPa East 3.2 km/h 14.5 km/h 91 % 0.0 mm
05:12 8.5 °C 7.1 °C 1020.5 hPa NE 3.2 km/h 14.5 km/h 91 % 0.0 mm
05:17 8.5 °C 7.1 °C 1020.5 hPa NNE 9.7 km/h 9.7 km/h 91 % 0.0 mm
05:22 8.5 °C 7.1 °C 1020.5 hPa NNE 3.2 km/h 9.7 km/h 91 % 0.0 mm
05:32 8.5 °C 7.1 °C 1020.5 hPa NE 8.0 km/h 12.9 km/h 91 % 0.0 mm
05:42 8.5 °C 7.3 °C 1020.2 hPa NNE 6.4 km/h 12.9 km/h 92 % 0.0 mm
05:47 8.5 °C 7.3 °C 1020.2 hPa NNE 9.7 km/h 17.7 km/h 92 % 0.0 mm
05:52 8.5 °C 7.3 °C 1020.2 hPa NNE 3.2 km/h 17.7 km/h 92 % 0.0 mm
05:57 8.5 °C 7.3 °C 1020.5 hPa NW 3.2 km/h 16.1 km/h 92 % 0.0 mm
06:02 8.5 °C 7.3 °C 1020.5 hPa NE 8.0 km/h 16.1 km/h 92 % 0.0 mm
06:07 8.5 °C 7.3 °C 1020.2 hPa NE 1.6 km/h 12.9 km/h 92 % 0.0 mm
06:12 8.5 °C 7.3 °C 1020.2 hPa Calm   12.9 km/h 92 % 0.0 mm
06:17 8.4 °C 7.2 °C 1020.2 hPa NNE 3.2 km/h 12.9 km/h 92 % 0.0 mm
06:22 8.4 °C 7.2 °C 1020.2 hPa NE 3.2 km/h 11.3 km/h 92 % 0.0 mm
06:32 8.4 °C 7.3 °C 1020.2 hPa Calm   9.7 km/h 93 % 0.0 mm
06:37 8.4 °C 7.3 °C 1020.2 hPa Calm   8.0 km/h 93 % 0.0 mm
06:42 8.4 °C 7.3 °C 1020.2 hPa NE 1.6 km/h 8.0 km/h 93 % 0.0 mm
06:47 8.4 °C 7.3 °C 1020.2 hPa NE 4.8 km/h 4.8 km/h 93 % 0.0 mm
06:52 8.4 °C 7.3 °C 1020.2 hPa NE 3.2 km/h 8.0 km/h 93 % 0.0 mm
07:02 8.4 °C 7.3 °C 1020.2 hPa NE 3.2 km/h 8.0 km/h 93 % 0.0 mm
07:12 8.4 °C 7.3 °C 1020.2 hPa NNE 4.8 km/h 8.0 km/h 93 % 0.0 mm
07:17 8.5 °C 7.4 °C 1020.2 hPa NNE 3.2 km/h 8.0 km/h 93 % 0.0 mm
07:22 8.5 °C 7.4 °C 1020.2 hPa NNE 3.2 km/h 8.0 km/h 93 % 0.0 mm
07:27 8.5 °C 7.4 °C 1020.2 hPa North 8.0 km/h 9.7 km/h 93 % 0.0 mm
07:32 8.6 °C 7.5 °C 1020.2 hPa NE 3.2 km/h 9.7 km/h 93 % 0.0 mm
07:37 8.6 °C 7.5 °C 1020.2 hPa NE 6.4 km/h 9.7 km/h 93 % 0.0 mm
07:42 8.6 °C 7.5 °C 1020.2 hPa NE 4.8 km/h 9.7 km/h 93 % 0.0 mm
07:47 8.6 °C 7.5 °C 1020.2 hPa NNE 3.2 km/h 11.3 km/h 93 % 0.0 mm
07:57 8.7 °C 7.6 °C 1020.2 hPa North 1.6 km/h 14.5 km/h 93 % 0.0 mm
08:02 8.7 °C 7.6 °C 1019.9 hPa NE 9.7 km/h 14.5 km/h 93 % 0.0 mm
08:07 8.7 °C 7.6 °C 1019.9 hPa NE 4.8 km/h 14.5 km/h 93 % 0.0 mm
08:12 8.7 °C 7.6 °C 1020.2 hPa NE 4.8 km/h 14.5 km/h 93 % 0.0 mm
08:17 8.6 °C 7.4 °C 1020.2 hPa NNE 6.4 km/h 17.7 km/h 92 % 0.0 mm
08:22 8.5 °C 7.3 °C 1019.9 hPa NNE 8.0 km/h 17.7 km/h 92 % 0.0 mm
08:27 8.6 °C 7.4 °C 1019.9 hPa NE 4.8 km/h 19.3 km/h 92 % 0.0 mm
08:32 8.7 °C 7.5 °C 1019.9 hPa NNE 8.0 km/h 19.3 km/h 92 % 0.0 mm
08:37 8.8 °C 7.4 °C 1019.9 hPa NNE 4.8 km/h 14.5 km/h 91 % 0.0 mm
08:42 9.0 °C 7.6 °C 1020.2 hPa NNE 8.0 km/h 14.5 km/h 91 % 0.0 mm
08:47 9.1 °C 7.5 °C 1019.9 hPa NNE 11.3 km/h 19.3 km/h 90 % 0.0 mm
08:52 9.3 °C 7.6 °C 1019.9 hPa East 8.0 km/h 19.3 km/h 89 % 0.0 mm
08:57 9.4 °C 7.5 °C 1019.9 hPa NNE 6.4 km/h 20.9 km/h 88 % 0.0 mm
09:02 9.6 °C 7.4 °C 1019.9 hPa NE 6.4 km/h 20.9 km/h 86 % 0.0 mm
09:07 9.7 °C 7.1 °C 1019.9 hPa ENE 9.7 km/h 22.5 km/h 84 % 0.0 mm
09:12 9.7 °C 7.3 °C 1019.9 hPa NE 11.3 km/h 22.5 km/h 85 % 0.0 mm
09:17 9.9 °C 7.3 °C 1019.9 hPa NE 9.7 km/h 22.5 km/h 84 % 0.0 mm
09:22 9.8 °C 7.2 °C 1019.9 hPa NE 6.4 km/h 22.5 km/h 84 % 0.0 mm
09:32 9.5 °C 6.9 °C 1019.9 hPa NNE 19.3 km/h 20.9 km/h 84 % 0.0 mm
09:37 9.4 °C 6.8 °C 1019.9 hPa ENE 11.3 km/h 20.9 km/h 84 % 0.0 mm
09:42 9.6 °C 7.0 °C 1019.9 hPa NE 12.9 km/h 20.9 km/h 84 % 0.0 mm
09:47 10.3 °C 7.2 °C 1019.9 hPa ENE 17.7 km/h 25.7 km/h 81 % 0.0 mm
09:52 10.7 °C 7.6 °C 1019.9 hPa East 6.4 km/h 25.7 km/h 81 % 0.0 mm
09:57 10.6 °C 7.1 °C 1019.9 hPa NE 19.3 km/h 27.4 km/h 79 % 0.0 mm
10:07 10.6 °C 7.1 °C 1019.5 hPa NE 14.5 km/h 27.4 km/h 79 % 0.0 mm
10:12 10.8 °C 7.3 °C 1019.5 hPa NE 11.3 km/h 27.4 km/h 79 % 0.0 mm
10:17 10.6 °C 7.1 °C 1019.5 hPa NE 8.0 km/h 25.7 km/h 79 % 0.0 mm
10:22 10.4 °C 7.1 °C 1019.5 hPa NE 16.1 km/h 25.7 km/h 80 % 0.0 mm
10:27 10.2 °C 6.9 °C 1019.5 hPa NE 11.3 km/h 19.3 km/h 80 % 0.0 mm
10:32 10.3 °C 7.4 °C 1019.5 hPa ENE 4.8 km/h 19.3 km/h 82 % 0.0 mm
10:42 10.7 °C 6.6 °C 1019.5 hPa NNE 16.1 km/h 19.3 km/h 76 % 0.0 mm
10:52 10.9 °C 6.8 °C 1019.5 hPa NNE 17.7 km/h 25.7 km/h 76 % 0.0 mm
10:57 11.2 °C 6.9 °C 1019.2 hPa East 17.7 km/h 25.7 km/h 75 % 0.0 mm
11:02 11.4 °C 6.9 °C 1019.2 hPa NE 9.7 km/h 25.7 km/h 74 % 0.0 mm
11:12 11.8 °C 6.9 °C 1019.2 hPa NNE 19.3 km/h 22.5 km/h 72 % 0.0 mm
11:17 11.6 °C 6.9 °C 1019.2 hPa NE 19.3 km/h 27.4 km/h 73 % 0.0 mm
11:22 11.9 °C 6.6 °C 1019.2 hPa ENE 12.9 km/h 27.4 km/h 70 % 0.0 mm
11:27 11.6 °C 6.9 °C 1019.2 hPa ENE 11.3 km/h 27.4 km/h 73 % 0.0 mm
11:32 11.4 °C 6.5 °C 1019.2 hPa ENE 6.4 km/h 27.4 km/h 72 % 0.0 mm
11:37 11.6 °C 6.9 °C 1019.2 hPa NE 9.7 km/h 27.4 km/h 73 % 0.0 mm
11:42 11.9 °C 6.8 °C 1019.2 hPa ENE 24.1 km/h 27.4 km/h 71 % 0.0 mm
11:47 12.1 °C 7.2 °C 1019.2 hPa NE 17.7 km/h 30.6 km/h 72 % 0.0 mm
11:52 12.1 °C 6.8 °C 1019.2 hPa NE 6.4 km/h 30.6 km/h 70 % 0.0 mm
11:57 12.4 °C 7.5 °C 1018.8 hPa ENE 9.7 km/h 29.0 km/h 72 % 0.0 mm
12:02 12.5 °C 7.0 °C 1018.8 hPa East 14.5 km/h 29.0 km/h 69 % 0.0 mm
12:12 12.0 °C 6.3 °C 1018.8 hPa NE 19.3 km/h 30.6 km/h 68 % 0.0 mm
12:17 12.1 °C 6.2 °C 1018.8 hPa NNE 17.7 km/h 30.6 km/h 67 % 0.0 mm
12:22 12.3 °C 6.6 °C 1018.8 hPa ENE 17.7 km/h 30.6 km/h 68 % 0.0 mm
12:32 12.7 °C 6.7 °C 1018.8 hPa NE 12.9 km/h 24.1 km/h 67 % 0.0 mm
12:37 12.9 °C 6.7 °C 1018.8 hPa NE 19.3 km/h 25.7 km/h 66 % 0.0 mm
12:42 12.6 °C 6.2 °C 1018.8 hPa NNE 11.3 km/h 25.7 km/h 65 % 0.0 mm
12:47 12.3 °C 6.3 °C 1018.5 hPa ENE 16.1 km/h 29.0 km/h 67 % 0.0 mm
12:52 12.7 °C 6.1 °C 1018.5 hPa East 14.5 km/h 29.0 km/h 64 % 0.0 mm
12:57 13.2 °C 6.5 °C 1018.5 hPa East 19.3 km/h 24.1 km/h 64 % 0.0 mm
13:02 12.9 °C 6.3 °C 1018.5 hPa NE 20.9 km/h 24.1 km/h 64 % 0.0 mm
13:07 13.1 °C 6.4 °C 1018.5 hPa ENE 8.0 km/h 27.4 km/h 64 % 0.0 mm
13:12 13.3 °C 6.9 °C 1018.5 hPa NE 19.3 km/h 27.4 km/h 65 % 0.0 mm
13:17 13.5 °C 6.4 °C 1018.5 hPa NNE 14.5 km/h 27.4 km/h 62 % 0.0 mm
13:22 13.1 °C 6.0 °C 1018.2 hPa NE 9.7 km/h 25.7 km/h 62 % 0.0 mm
13:27 13.2 °C 5.6 °C 1018.2 hPa ENE 12.9 km/h 25.7 km/h 60 % 0.0 mm
13:32 13.4 °C 6.0 °C 1018.2 hPa East 17.7 km/h 25.7 km/h 61 % 0.0 mm
13:37 13.4 °C 6.5 °C 1017.8 hPa NE 16.1 km/h 24.1 km/h 63 % 0.0 mm
13:42 13.9 °C 6.7 °C 1018.2 hPa ENE 11.3 km/h 24.1 km/h 62 % 0.0 mm
13:47 14.0 °C 6.4 °C 1017.8 hPa ENE 4.8 km/h 24.1 km/h 60 % 0.0 mm
13:52 14.3 °C 6.4 °C 1017.8 hPa East 6.4 km/h 24.1 km/h 59 % 0.0 mm
13:57 14.6 °C 7.2 °C 1017.8 hPa NNE 11.3 km/h 24.1 km/h 61 % 0.0 mm
14:02 14.3 °C 6.6 °C 1017.8 hPa NE 17.7 km/h 27.4 km/h 60 % 0.0 mm
14:07 14.2 °C 6.1 °C 1017.8 hPa ENE 12.9 km/h 27.4 km/h 58 % 0.0 mm
14:12 14.3 °C 5.9 °C 1017.8 hPa NE 11.3 km/h 24.1 km/h 57 % 0.0 mm
14:17 14.7 °C 6.3 °C 1017.5 hPa ENE 9.7 km/h 22.5 km/h 57 % 0.0 mm
14:22 14.8 °C 6.6 °C 1017.5 hPa ENE 12.9 km/h 22.5 km/h 58 % 0.0 mm
14:27 14.6 °C 6.7 °C 1017.5 hPa NE 17.7 km/h 22.5 km/h 59 % 0.0 mm
14:32 14.7 °C 6.8 °C 1017.5 hPa East 11.3 km/h 24.1 km/h 59 % 0.0 mm
14:37 14.9 °C 5.9 °C 1017.2 hPa ENE 9.7 km/h 24.1 km/h 55 % 0.0 mm
14:42 14.8 °C 6.1 °C 1017.2 hPa ENE 17.7 km/h 24.1 km/h 56 % 0.0 mm
14:47 14.5 °C 6.6 °C 1017.2 hPa North 9.7 km/h 22.5 km/h 59 % 0.0 mm
14:52 14.6 °C 6.9 °C 1017.2 hPa East 12.9 km/h 22.5 km/h 60 % 0.0 mm
14:57 14.5 °C 6.3 °C 1017.2 hPa NNE 8.0 km/h 22.5 km/h 58 % 0.0 mm
15:02 14.6 °C 5.9 °C 1017.2 hPa NNE 8.0 km/h 22.5 km/h 56 % 0.0 mm
15:12 15.1 °C 7.1 °C 1016.8 hPa North 12.9 km/h 27.4 km/h 59 % 0.0 mm
15:17 14.9 °C 7.2 °C 1016.8 hPa NNE 22.5 km/h 27.4 km/h 60 % 0.0 mm
15:22 14.8 °C 7.4 °C 1016.8 hPa NE 6.4 km/h 27.4 km/h 61 % 0.0 mm
15:27 15.0 °C 6.3 °C 1016.5 hPa NNW 9.7 km/h 27.4 km/h 56 % 0.0 mm
15:32 14.9 °C 6.2 °C 1016.5 hPa ENE 8.0 km/h 25.7 km/h 56 % 0.0 mm
15:42 15.2 °C 6.7 °C 1016.1 hPa NE 9.7 km/h 29.0 km/h 57 % 0.0 mm
15:47 14.9 °C 6.2 °C 1016.1 hPa NNE 17.7 km/h 29.0 km/h 56 % 0.0 mm
15:52 14.9 °C 7.0 °C 1016.1 hPa ENE 8.0 km/h 29.0 km/h 59 % 0.0 mm
15:57 15.2 °C 6.7 °C 1016.1 hPa NNE 17.7 km/h 25.7 km/h 57 % 0.0 mm
16:02 15.4 °C 7.4 °C 1016.1 hPa NE 8.0 km/h 27.4 km/h 59 % 0.0 mm
16:07 15.6 °C 7.1 °C 1015.8 hPa ENE 4.8 km/h 27.4 km/h 57 % 0.0 mm
16:12 15.5 °C 6.2 °C 1015.8 hPa NE 14.5 km/h 27.4 km/h 54 % 0.0 mm
16:17 15.3 °C 7.1 °C 1015.8 hPa NE 16.1 km/h 29.0 km/h 58 % 0.0 mm
16:22 15.4 °C 7.2 °C 1015.8 hPa NE 12.9 km/h 29.0 km/h 58 % 0.0 mm
16:27 15.2 °C 6.2 °C 1015.8 hPa ENE 6.4 km/h 29.0 km/h 55 % 0.0 mm
16:32 15.3 °C 6.6 °C 1015.5 hPa NNE 11.3 km/h 27.4 km/h 56 % 0.0 mm
16:37 15.6 °C 7.1 °C 1015.5 hPa NE 12.9 km/h 22.5 km/h 57 % 0.0 mm
16:42 15.7 °C 7.2 °C 1015.5 hPa ENE 14.5 km/h 22.5 km/h 57 % 0.0 mm
16:47 15.6 °C 6.3 °C 1015.5 hPa NE 6.4 km/h 25.7 km/h 54 % 0.0 mm
16:52 15.6 °C 6.9 °C 1015.5 hPa NE 14.5 km/h 25.7 km/h 56 % 0.0 mm
16:57 15.6 °C 7.1 °C 1015.1 hPa WNW 9.7 km/h 25.7 km/h 57 % 0.0 mm
17:02 15.6 °C 6.9 °C 1015.1 hPa ENE 16.1 km/h 25.7 km/h 56 % 0.0 mm
17:12 15.7 °C 7.2 °C 1015.1 hPa NE 16.1 km/h 30.6 km/h 57 % 0.0 mm
17:22 15.6 °C 6.3 °C 1014.8 hPa NNE 16.1 km/h 30.6 km/h 54 % 0.0 mm
17:27 15.5 °C 6.5 °C 1014.8 hPa NNW 11.3 km/h 25.7 km/h 55 % 0.0 mm
17:32 15.6 °C 6.9 °C 1014.8 hPa NE 11.3 km/h 29.0 km/h 56 % 0.0 mm
17:42 15.9 °C 7.4 °C 1014.4 hPa NNE 22.5 km/h 29.0 km/h 57 % 0.0 mm
17:47 15.8 °C 6.8 °C 1014.8 hPa NE 9.7 km/h 29.0 km/h 55 % 0.0 mm
17:52 15.8 °C 6.8 °C 1014.4 hPa ENE 11.3 km/h 29.0 km/h 55 % 0.0 mm
17:57 15.9 °C 7.6 °C 1014.4 hPa NE 12.9 km/h 29.0 km/h 58 % 0.0 mm
18:02 15.7 °C 6.9 °C 1014.4 hPa NW 9.7 km/h 29.0 km/h 56 % 0.0 mm
18:07 15.5 °C 6.8 °C 1014.4 hPa NE 16.1 km/h 29.0 km/h 56 % 0.0 mm
18:17 15.8 °C 6.8 °C 1014.1 hPa North 14.5 km/h 25.7 km/h 55 % 0.0 mm
18:22 15.7 °C 6.9 °C 1014.1 hPa NE 14.5 km/h 25.7 km/h 56 % 0.0 mm
18:27 15.7 °C 6.9 °C 1014.1 hPa NE 16.1 km/h 24.1 km/h 56 % 0.0 mm
18:37 15.4 °C 6.7 °C 1014.1 hPa NNE 12.9 km/h 27.4 km/h 56 % 0.0 mm
18:42 15.5 °C 6.8 °C 1013.8 hPa NE 12.9 km/h 27.4 km/h 56 % 0.0 mm
18:52 15.5 °C 6.5 °C 1013.8 hPa NE 9.7 km/h 27.4 km/h 55 % 0.0 mm
18:57 15.4 °C 6.7 °C 1013.8 hPa NW 6.4 km/h 30.6 km/h 56 % 0.0 mm
19:02 15.3 °C 6.8 °C 1013.8 hPa NE 14.5 km/h 30.6 km/h 57 % 0.0 mm
19:12 15.3 °C 6.8 °C 1013.8 hPa NE 11.3 km/h 25.7 km/h 57 % 0.0 mm
19:17 15.3 °C 6.6 °C 1013.4 hPa NE 17.7 km/h 22.5 km/h 56 % 0.0 mm
19:22 15.3 °C 6.8 °C 1013.4 hPa NNE 16.1 km/h 22.5 km/h 57 % 0.0 mm
19:27 15.2 °C 6.7 °C 1013.4 hPa ENE 9.7 km/h 22.5 km/h 57 % 0.0 mm
19:32 15.0 °C 6.5 °C 1013.4 hPa NE 17.7 km/h 25.7 km/h 57 % 0.0 mm
19:37 15.0 °C 6.8 °C 1013.4 hPa NE 11.3 km/h 25.7 km/h 58 % 0.0 mm
19:42 15.0 °C 6.5 °C 1013.4 hPa ENE 16.1 km/h 25.7 km/h 57 % 0.0 mm
19:47 14.9 °C 6.5 °C 1013.1 hPa ENE 14.5 km/h 22.5 km/h 57 % 0.0 mm
19:52 14.8 °C 6.6 °C 1013.4 hPa NE 8.0 km/h 22.5 km/h 58 % 0.0 mm
19:57 14.7 °C 6.8 °C 1013.1 hPa North 16.1 km/h 24.1 km/h 59 % 0.0 mm
20:02 14.6 °C 6.4 °C 1013.1 hPa ENE 12.9 km/h 25.7 km/h 58 % 0.0 mm
20:12 14.4 °C 6.2 °C 1013.1 hPa NNE 14.5 km/h 25.7 km/h 58 % 0.0 mm
20:17 14.4 °C 6.5 °C 1013.1 hPa NNE 12.9 km/h 24.1 km/h 59 % 0.0 mm
20:22 14.2 °C 6.5 °C 1013.1 hPa NE 8.0 km/h 24.1 km/h 60 % 0.0 mm
20:27 14.2 °C 6.5 °C 1013.1 hPa NE 12.9 km/h 24.1 km/h 60 % 0.0 mm
20:32 14.0 °C 6.6 °C 1013.1 hPa NE 9.7 km/h 24.1 km/h 61 % 0.0 mm
20:37 13.9 °C 6.5 °C 1013.1 hPa NNW 8.0 km/h 24.1 km/h 61 % 0.0 mm
20:42 13.7 °C 6.3 °C 1013.1 hPa NE 8.0 km/h 24.1 km/h 61 % 0.0 mm
20:47 13.6 °C 6.5 °C 1012.8 hPa NNE 8.0 km/h 20.9 km/h 62 % 0.0 mm
20:52 13.4 °C 6.5 °C 1012.8 hPa NE 14.5 km/h 20.9 km/h 63 % 0.0 mm
20:57 13.2 °C 6.3 °C 1012.8 hPa NE 9.7 km/h 20.9 km/h 63 % 0.0 mm
21:02 13.1 °C 6.4 °C 1012.8 hPa NNE 12.9 km/h 19.3 km/h 64 % 0.0 mm
21:12 12.8 °C 6.4 °C 1012.8 hPa NE 9.7 km/h 20.9 km/h 65 % 0.0 mm
21:17 12.6 °C 6.4 °C 1012.8 hPa NNE 6.4 km/h 20.9 km/h 66 % 0.0 mm
21:22 12.5 °C 6.3 °C 1012.8 hPa NE 9.7 km/h 17.7 km/h 66 % 0.0 mm
21:32 12.2 °C 6.3 °C 1012.8 hPa NE 9.7 km/h 14.5 km/h 67 % 0.0 mm
21:42 12.1 °C 6.2 °C 1013.1 hPa North 8.0 km/h 14.5 km/h 67 % 0.0 mm
21:47 11.9 °C 6.0 °C 1013.1 hPa ENE 9.7 km/h 16.1 km/h 67 % 0.0 mm
21:52 11.9 °C 6.2 °C 1012.8 hPa NE 9.7 km/h 16.1 km/h 68 % 0.0 mm
21:57 11.8 °C 6.1 °C 1013.1 hPa ENE 9.7 km/h 17.7 km/h 68 % 0.0 mm
22:02 11.7 °C 6.2 °C 1012.8 hPa NNE 8.0 km/h 17.7 km/h 69 % 0.0 mm
22:07 11.6 °C 6.1 °C 1012.8 hPa NE 8.0 km/h 17.7 km/h 69 % 0.0 mm
22:12 11.4 °C 5.9 °C 1012.8 hPa NE 9.7 km/h 14.5 km/h 69 % 0.0 mm
22:17 11.4 °C 6.1 °C 1012.8 hPa NE 11.3 km/h 16.1 km/h 70 % 0.0 mm
22:22 11.3 °C 6.0 °C 1012.8 hPa NE 6.4 km/h 16.1 km/h 70 % 0.0 mm
22:27 11.2 °C 5.9 °C 1013.1 hPa ENE 6.4 km/h 17.7 km/h 70 % 0.0 mm
22:32 11.2 °C 5.9 °C 1012.8 hPa North 3.2 km/h 17.7 km/h 70 % 0.0 mm
22:42 11.1 °C 6.0 °C 1012.8 hPa NE 9.7 km/h 16.1 km/h 71 % 0.0 mm
22:47 10.9 °C 5.8 °C 1012.8 hPa NE 9.7 km/h 16.1 km/h 71 % 0.0 mm
22:52 10.8 °C 6.0 °C 1012.8 hPa NE 9.7 km/h 16.1 km/h 72 % 0.0 mm
22:57 10.7 °C 5.9 °C 1012.8 hPa NE 9.7 km/h 16.1 km/h 72 % 0.0 mm
23:02 10.6 °C 6.0 °C 1012.8 hPa NE 8.0 km/h 14.5 km/h 73 % 0.0 mm
23:12 10.4 °C 6.0 °C 1012.8 hPa NNE 6.4 km/h 17.7 km/h 74 % 0.0 mm
23:17 10.3 °C 5.9 °C 1012.4 hPa ENE 9.7 km/h 17.7 km/h 74 % 0.0 mm
23:22 10.3 °C 5.9 °C 1012.4 hPa NE 11.3 km/h 17.7 km/h 74 % 0.0 mm
23:27 10.2 °C 5.8 °C 1012.4 hPa North 4.8 km/h 17.7 km/h 74 % 0.0 mm
23:32 10.1 °C 5.7 °C 1012.4 hPa ENE 6.4 km/h 16.1 km/h 74 % 0.0 mm
23:42 9.9 °C 5.7 °C 1012.4 hPa NNE 11.3 km/h 14.5 km/h 75 % 0.0 mm
23:47 9.8 °C 5.6 °C 1012.1 hPa ENE 9.7 km/h 14.5 km/h 75 % 0.0 mm
23:52 9.8 °C 5.6 °C 1012.1 hPa NE 4.8 km/h 16.1 km/h 75 % 0.0 mm
23:57 9.6 °C 5.6 °C 1012.1 hPa NE 6.4 km/h 16.1 km/h 76 % 0.0 mm
Meteo18
Compliments of Weather Underground - 4 mb

Script developed by  Jim McMurry - jmcmurry@mwt.net Adapted for the template by  Wim van der Kuil - Leuven-Template.eu

You find our weather info also at:

European Weather Network

Weather Underground

Equipment we use:

Weather-station
Davis Vue

Weather-program
Meteohub

Weather-server
Raspberry PI 2 B+

Provider
1 and 1

Davis Vue

Meteohub

Raspberry PI 2 B+

1 and 1